Mercredi 21 février 2018   -   semaine 08                    on fête: Cendres                    soleil  (+4 mn) lever du soleil 07:40:00 coucher du soleil 18:20:00                    lune Premier croissant
Sélection

Sélection d'un SYNOP

   Synop:       

  Période à consulter:

Actuelle
Archive     

Relevé

Dernier relevé du SYNOP pour la période choisie

Conditions météo à la station de Vichy/Charmeil (4610N 00324E)    altitude 251m

Date du relevé21/02/2018 à 19:00
Visibilité15km
Vent4 km/h NNO
Température2.8 C
Température maxi / 12h4.6 C
Température mini / 12h0.0 C
Humidité65.1 %
Point de rosée-3.1 C
Pression absolue985.6 hPa
Pression relative1016.5 hPa
Variation pression0.2 hPa en baisse ou stationnaire, puis en hausse plus rapide
Précipitations0 mm les 12 dernières heures

24h

Historique de la période choisie

Certaines stations ne diffusent pas en continu, d'où l'absence possible de données à certaines heures. Le tableau ci-dessous récapitule l'historique des relevés de la station de Vichy/Charmeil.

Date - Heure Base des nuages Visibilité Nébulosité Vent - Secteur Température Humidité Point rosée Pression / Géopotentiel Précipitations Temps
21/02 19:00 15km 4 km/h NNO 2.8 C 65.1 % -3.1 C 1016.5 hPa 0 mm/12h
21/02 18:00 17km 7 km/h N 3.3 C 61.9 % -3.3 C 1016.3 hPa
21/02 17:00 13km 7 km/h N 3.4 C 64.8 % -2.6 C 1016.3 hPa
21/02 16:00 13km 7 km/h N 3.3 C 63.8 % -2.9 C 1016.3 hPa
21/02 15:00 13km 9 km/h N 3.7 C 62.0 % -2.9 C 1016.4 hPa
21/02 14:00 16km 9 km/h N 3.5 C 62.0 % -3.1 C 1016.9 hPa
21/02 13:00 15km 9 km/h N 3.5 C 63.8 % -2.7 C 1017.4 hPa 0 mm/6h
21/02 12:00 16km 13 km/h N 2.0 C 64.9 % -3.9 C 1018.1 hPa
21/02 11:00 12km 9 km/h N 1.9 C 66.9 % -3.6 C 1017.8 hPa
21/02 10:00 10km 7 km/h N 0.8 C 75.1 % -3.1 C 1017.9 hPa
21/02 09:00 9km 7 km/h N -0.5 C 80.1 % -3.5 C 1018.1 hPa
21/02 08:00 10km 6 km/h N -1.5 C 83.0 % -4.0 C 1018.1 hPa
21/02 07:00 8km 4 km/h N -2.1 C 86.1 % -4.1 C 1017.7 hPa 0 mm/12h
21/02 06:00 8km 6 km/h N -1.4 C 84.9 % -3.6 C 1017.6 hPa
21/02 05:00 13km 4 km/h N -0.8 C 78.9 % -4.0 C 1017.7 hPa
21/02 04:00 15km 7 km/h N 0.4 C 72.8 % -3.9 C 1017.9 hPa
21/02 03:00 10km 6 km/h N 0.4 C 79.7 % -2.7 C 1018.0 hPa
21/02 02:00 8km 4 km/h N 0.5 C 82.1 % -2.2 C 1017.7 hPa
21/02 01:00 11km 7 km/h N 1.9 C 78.7 % -1.4 C 1017.1 hPa 0 mm/6h
21/02 00:00 13km 4 km/h N 2.8 C 74.9 % -1.2 C 1016.4 hPa
20/02 23:00 19km 4 km/h N 3.8 C 79.0 % 0.5 C 1016.3 hPa
20/02 22:00 20km 4 km/h N 4.0 C 83.7 % 1.5 C 1016.1 hPa
20/02 21:00 20km 6 km/h NNO 4.5 C 82.0 % 1.7 C 1016.0 hPa
20/02 20:00 20km 4 km/h NNO 4.8 C 80.9 % 1.8 C 1015.9 hPa

Source: ogimet